Location: Banios
(43.0451°N, 0.2335°E)
Time: 01:42:58
(UTC+00:00)

X-37B - Visible Passes

Search period start: 16 April 2021 00:00
Search period end: 26 April 2021 00:00
Orbit: 380 x 394 km, 45.0° (Epoch: 07 April)

Date Brightness Start Highest point End Pass type
(mag) Time Alt. Az. Time Alt. Az. Time Alt. Az.
16 Apr 1.8 03:35:58 28° SSE 03:36:24 30° SSE 03:39:14 10° E visible
17 Apr 3.6 02:40:06 12° ESE 02:40:06 12° ESE 02:40:27 10° E visible
17 Apr 0.6 04:12:23 19° WSW 04:14:30 78° SSE 04:17:41 10° ENE visible
18 Apr 1.2 03:16:28 48° SE 03:16:28 48° SE 03:19:17 10° E visible
19 Apr 3.7 02:20:32 11° E 02:20:32 11° E 02:20:46 10° E visible
19 Apr 0.6 03:52:48 27° W 03:54:24 75° N 03:57:35 10° ENE visible
20 Apr 1.5 02:56:51 46° E 02:56:51 46° E 02:59:12 10° ENE visible
20 Apr 1.1 04:29:37 10° W 04:32:46 57° N 04:35:54 10° E visible
21 Apr 0.9 03:33:10 34° WNW 03:34:20 61° N 03:37:30 10° ENE visible
22 Apr 2.3 02:37:13 32° ENE 02:37:13 32° ENE 02:39:06 10° ENE visible
22 Apr 1.0 04:09:33 10° WNW 04:12:44 60° N 04:15:52 10° E visible
23 Apr 1.1 03:13:35 44° NW 03:14:17 57° N 03:17:26 10° E visible
24 Apr 3.0 02:17:43 22° ENE 02:17:43 22° ENE 02:19:01 10° ENE visible
24 Apr 0.7 03:50:01 14° WNW 03:52:40 74° NNE 03:55:51 10° E visible
25 Apr 1.0 02:54:14 61° N 02:54:14 61° N 02:57:25 10° E visible
25 Apr 0.8 04:27:46 10° W 04:30:53 52° SSW 04:33:59 10° SE visible
